This demonstration page uses our WeatherBlox Daily Observations layout. Learn more.

Left ArrowRight Arrow

Hourly Observations for April 19, 2018

Temp ( °F °C ) Dew Point ( °F °C ) Humidity (%) Winds ( mph kmh ) Pressure ( in mb ) Visibility ( mi km ) Precip ( " mm )
12:51 am 00:51 Clear 55 12.8 4 -15.6 12 12 E 3 6 29.88 1012 10 16 0.00 0.00
1:51 am 01:51 Clear 53 11.7 6 -14.4 15 15 SSE 6 9 29.88 1012 10 16 0.00 0.00
2:51 am 02:51 Clear 53 11.7 4 -15.6 13 13 E 7 11 29.86 1011 10 16 0.00 0.00
3:51 am 03:51 Clear 56 13.3 4 -15.6 12 12 ESE 9 15 29.85 1011 10 16 0.00 0.00
4:51 am 04:51 Clear 58 14.4 4 -15.6 11 11 ESE 10 17 29.84 1011 10 16 0.00 0.00
5:51 am 05:51 Sunny 59 15 5 -15 11 11 ESE 10 17 29.85 1011 10 16 0.00 0.00
6:51 am 06:51 Sunny 60 15.6 7 -13.9 12 12 SE 9 15 29.88 1012 10 16 0.00 0.00
7:51 am 07:51 Sunny 64 17.8 9 -12.8 11 11 SE 15 24 29.90 1013 10 16 0.00 0.00
8:51 am 08:51 Sunny 67 19.4 9 -12.8 10 10 SE 14 22 29.91 1013 10 16 0.00 0.00
9:51 am 09:51 Sunny 72 22.2 11 -11.7 9 9 ESE 15 24 29.86 1011 10 16 0.00 0.00
10:51 am 10:51 Sunny 79 26.1 10 -12.2 7 7 SE 15 24 29.82 1010 10 16 0.00 0.00
11:51 am 11:51 Sunny 86 30 8 -13.3 5 5 S 21 33 29.78 1008 10 16 0.00 0.00
12:51 pm 12:51 Sunny 84 28.9 4 -15.6 4 4 SSE 18 30 29.75 1008 10 16 0.00 0.00
1:51 pm 13:51 Sunny 87 30.6 0 -17.8 3 3 SSE 16 26 29.71 1006 10 16 0.00 0.00
2:51 pm 14:51 Sunny 88 31.1 -6 -21.1 2 2 SW 16 26 29.65 1004 10 16 0.00 0.00
3:51 pm 15:51 Sunny 91 32.8 -16 -26.7 1 1 WSW 23 37 29.61 1003 10 16 0.00 0.00
4:51 pm 16:51 Sunny 88 31.1 -14 -25.6 2 2 SSW 28 44 29.61 1003 10 16 0.00 0.00
5:51 pm 17:51 Sunny 84 28.9 -2 -18.9 3 3 SSW 20 31 29.61 1003 10 16 0.00 0.00
6:51 pm 18:51 Sunny 80 26.7 4 -15.6 5 5 W 14 22 29.62 1003 10 16 0.00 0.00
7:51 pm 19:51 Clear 76 24.4 2 -16.7 5 5 WNW 17 28 29.65 1004 10 16 0.00 0.00
8:51 pm 20:51 Clear 69 20.6 13 -10.6 11 11 NW 24 39 29.67 1005 8 13 0.00 0.00
9:51 pm 21:51 Clear 65 18.3 16 -8.9 15 15 NW 23 37 29.68 1005 10 16 0.00 0.00
10:51 pm 22:51 Clear 63 17.2 15 -9.4 15 15 NW 20 31 29.69 1005 10 16 0.00 0.00
11:51 pm 23:51 Clear 61 16.1 15 -9.4 17 17 NNW 14 22 29.69 1005 10 16 0.00 0.00

Powered by AerisWeather